Regional Weather Roundup
Issued by NWS Wakefield, VA

Home | Current Version | Previous Version | Graphics & Text | Print | Product List | Glossary On
Versions: 1 2 3 4 5 6 7 8 9 10 11 12 13 14 15 16 17 18 19 20 21 22 23 24 25 26 27
000
ASUS41 KAKQ 280615
RWRAKQ

REGIONAL WEATHER ROUNDUP
NATIONAL WEATHER SERVICE WAKEFIELD VA
200 AM EDT FRI APR 28 2017

Note: "fair" indicates few or no clouds below 12,000 feet with no
significant weather and/or obstructions to visibility. * = Denotes
station may not report precipitation (e.g., rain,snow,etc.),
thunder or fog.

VAZ042-051-052>054-056-280700-
NORTHERN VIRGINIA

CITY           SKY/WX    TMP DP  RH WIND       PRES   REMARKS
WASH NATIONAL  CLOUDY    68  63  84 S9        29.86R
DULLES         PTCLDY    67  59  75 S8        29.85R
FORT BELVOIR   LGT RAIN  72  61  68 S3        29.86R
QUANTICO       CLOUDY    70  62  76 W5        29.88R
FREDERICKSBRG* MOCLDY    72  61  69 S9        29.87R
STAFFORD*      CLOUDY    66  63  91 CALM      29.91R
WARRENTON      CLOUDY    66  59  78 S3        29.87R
CULPEPER*      CLOUDY    66  62  86 SW6       29.88R
MANASSAS*        N/A     66  61  84 S5        29.87R
LEESBURG*      CLEAR     70  63  78 SW7       29.86S
WINCHESTER     PTCLDY    64  59  82 SW9G18    29.86R
FRONT ROYAL*   MOCLDY    66  59  77 SW7       29.87R
LURAY*         CLEAR     63  59  88 S5        29.89R
$$

VAZ048-049-060>072-079>083-280700-
CENTRAL AND SOUTH CENTRAL VIRGINIA

CITY           SKY/WX    TMP DP  RH WIND       PRES   REMARKS
RICHMOND       TSTM      68  64  87 SW12      29.90R FOG
CHESTERFIELD*  MOCLDY   N/A N/A N/A SW7       29.92R
PETERSBURG*    CLOUDY    70  61  74 S3        29.92F
HANOVER        LGT RAIN  69  61  75 SW7       29.92S
TAPPAHANNOCK*  CLOUDY    72  55  55 S3        29.91R
QUINTON*       CLOUDY    71  63  74 SW5       29.91R
CHARLOTTSVILLE CLEAR     64  61  90 SW8       29.89R
GORDONSVILLE*  CLOUDY    65  61  86 SW6       29.89R
ORANGE*        CLOUDY    61  59  94 SW3       29.89R
LOUISA*        CLOUDY    73  64  73 S5        29.89R
BUMPASS*       MOCLDY    69  63  81 SW6       29.90R
FARMVILLE*     CLOUDY    67  67 100 S7        29.90S
CREWE*         MOCLDY    66  66 100 CALM      29.92R
FORT PICKETT*  MOCLDY   N/A N/A N/A W3        29.92S
CHASE CITY*    CLOUDY    66  64  94 CALM      29.93R
CLARKSVILLE*   MOCLDY    64  64 100 CALM      29.92R
SOUTH HILL*    CLOUDY    68  65  90 S3        29.98R
LAWRENCEVILLE* FAIR      69  64  84 CALM      29.92S
EMPORIA*       PTCLDY    68  63  83 S3        29.93R
$$

VAZ088>098-280700-
SOUTHEAST VIRGINIA

CITY           SKY/WX    TMP DP  RH WIND       PRES   REMARKS
NORFOLK        PTCLDY    73  63  70 S13       29.92S
VIRGINIA BEACH CLOUDY    72  62  71 SW13      29.92S
NORFOLK NAVAL  MOCLDY    73  63  70 S7        29.94S
WEST POINT*    CLOUDY    72  61  68 S6        29.93R
SALUDA*        MOCLDY    72  64  75 S7        29.91R
NEWPORT NEWS   PTCLDY    71  63  75 S8        29.92S
LANGLEY AFB    PTCLDY    71  65  80 S8        29.92S
FORT EUSTIS    PTCLDY    72  64  78 S5        29.90R
WILLIAMSBURG*  CLOUDY    72  64  78 CALM      29.93R
HR EXEC AP*    FAIR      72  63  73 S6        29.91S
FRANKLIN*      CLOUDY    70  64  80 S6        29.92F
US460-WAKEFLD  PTCLDY    69  63  81 CALM      29.91S
$$

VAZ020-022-025-037-045-280700-
WEST CENTRAL AND SOUTHWEST VIRGINIA

CITY           SKY/WX    TMP DP  RH WIND       PRES   REMARKS
STAUNTON*      CLEAR     58  57  95 S5        29.93S
WAYNESBORO*    CLEAR     58  58 100 CALM      29.92R
HOT SPRINGS VA CLEAR     55  54  94 W12       29.99S
LYNCHBURG      PTCLDY    59  58  96 CALM      29.93R
DANVILLE       MOCLDY    64  64 100 CALM      29.92S FOG
SOUTH BOSTON*  CLOUDY    65  64  95 CALM      29.93R
MARTINSVILLE   CLOUDY    61  60  97 CALM      29.97R FOG
ROANOKE        CLEAR     59  59 100 W3        29.95R FOG
BLACKSBURG     FOG       57  56  97 CALM      29.99S VSB 1/2
DUBLIN*        FOG       54  51  92 S3        29.98R VSB 1/4
MARION*        FOG       58  57  96 CALM      30.01R VSB 1/4
HILLSVILLE*    FOG       55  55 100 CALM      29.98R VSB<1/4
RICHLANDS*     FAIR      58  58  98 CALM      29.98S
WISE*          PTCLDY    59  55  88 CALM      30.00R
ABINGDON*      FOG       58  58 100 CALM      29.96R VSB 1/4
$$

MDZ021>025-VAZ099-100-280700-
SOUTHERN MARYLAND AND THE DELMARVA PENINSULA

CITY           SKY/WX    TMP DP  RH WIND       PRES   REMARKS
PATUXENT RIVER CLOUDY    72  63  73 SW7       29.87S
BAY BRIDGE APT LGT RAIN  68  61  77 S6        29.85S
LEONARDTOWN    CLOUDY    72  59  64 SW7       29.89S
DOVER          PTCLDY    69  60  72 S10       29.85S
GEORGETOWN     CLOUDY    68  61  78 S7        29.88S
EASTON         CLOUDY    71  60  68 S7        29.90S
CAMBRIDGE      CLEAR     70  61  73 S5        29.87S
SALISBURY      PTCLDY    67  63  87 S6        29.88F
OCEAN CITY     CLOUDY    64  60  87 SW9       29.90F
WALLOPS ISLAND PTCLDY    64  62  93 S8        29.90F
ACCOMACK*      PTCLDY    69  64  81 S7        29.91F
$$

NCZ012>017-030>032-280700-
NORTH CENTRAL AND EASTERN NORTH CAROLINA

CITY           SKY/WX    TMP DP  RH WIND       PRES   REMARKS
ROANOKE RAPIDS FAIR      70  64  83 S8        29.93R
RALEIGH        CLOUDY    72  65  78 SW8       29.94R
ELIZABETH CITY CLOUDY    71  67  87 S10       29.95F
AHOSKIE*         N/A     70  65  84 S9        29.93F
EDENTON*       CLOUDY    73  66  80 S8        29.96F
CURRITUCK*     CLOUDY    72  65  80 S6        29.95F
KILL DEVIL HLS CLOUDY    72  67  83 SW8       29.96S
MANTEO         CLOUDY    71  68  91 SW10      29.98S
CAPE HATTERAS  CLOUDY    73  69  87 S8        30.00F FOG
TARBORO*       NOT AVBL
GOLDSBORO      MOCLDY    73  73 100 S7        29.94R
WASHINGTON     CLOUDY    71  68  89 S5        29.96F
GREENVILLE     CLOUDY    72  68  88 S8        29.97S
NEW BERN       MOCLDY    74  72  93 SW10      29.98R
WILMINGTON     CLOUDY    74  72  93 S9        29.97R
$$

VAZ048-280700-
ELSEWHERE

CITY           SKY/WX    TMP DP  RH WIND       PRES   REMARKS
HARRISBURG PA  PTCLDY    68  60  75 SW8       29.81R
BALTIMORE      CLOUDY    69  62  78 CALM      29.84R
ANNAPOLIS      LGT RAIN  64  61  90 SE6       29.84S
ANDREWS AFB    CLOUDY    68  60  76 SW10      29.85R
PHILADELPHIA   LGT RAIN  68  63  84 SW3       29.86R
HENDERSON NC   CLOUDY    69  61  75 SW8       29.93R
GREENSBORO     CLOUDY    66  66 100 CALM      29.93S FOG
ROCKY MOUNT    MOCLDY    71  67  87 S5        29.93F
$$

VAZ100-280700-
MARINE

STATION/POSITION TIME  TEMP    WIND        PRES    WAVE   SWELL
                       AIR SEA DIR/SP/G            HT/PER HT/PER
                 (UTC) (F)     (DEG/KT/KT) (MB)    (FT/S) (FT/S)
CAPE MAY NJ      0548   63 57  150/  7/ 10 1011.3F
LEWES DE         0548   69 56  210/  6/ 10 1011.6F
15NM E FENWICK I 0550   57 52  200/ 12/ 14 1013.1R   5/10   3/10
OCEAN-CITY-INLET 0548          210/ 11/ 13   N/A
WACHAPREAGUE VA  0548   66 67  180/  5/  8 1012.4F
THOMAS POINT MD  0600   67 58  190/ 12/ 13   N/A
GOOSES REEF MD   0600   66 55  180/ 10/ 12 1011.8    1/ 2
COVE POINT MD    0548   71     200/ 10/ 12 1011.8F
SOLOMONS ISLAND  0548          210/  8/ 12   N/A
BISHOPS HEAD MD  0548   69 67  190/ 13/ 16 1012.3F
PINEY POINT MD   0548          240/ 15/ 17   N/A
POTOMAC MD       0600   68 62  240/ 10/ 12 1011.1    1/ 2
CAMBRIDGE MD     0542   71 63                N/A
LEWISETTA VA     0548   72 66  230/ 11/ 12 1011.9R
RAPPAHANNOCK LGT 0548          180/ 14/ 15 1013.3F
STINGRAY PT      0600   68 62  240/  8/ 10 1012.9
YORK RVR RNG VA  0548   70     220/ 15/ 16 1012.2R
YORKTOWN VA      0548   72 64  200/  7/ 10 1012.7R
JAMESTOWN VA     0600   71 68  180/  6/  6   N/A     0
DOMINION TERM VA 0548   71     200/  8/ 11 1013.3S
KIPTOPEKE VA     0548      63  200/  8/ 10   N/A
CHES BAY BRIDGE  0548   72 61  230/ 16/ 20 1012.8S
CAPE HENRY VA    0548   73     200/  9/ 14   N/A
WILLOUBY STN VA  0548   72     200/ 12/ 14 1014.1S
S CRANEY ISL VA  0548   72     200/  8/ 10 1013.1R
CAPE HENRY BUOY  0542      62                N/A     3/ 8   2/11
1ST LANDING BUOY 0600   69 62              1013.2    1/ 3
CAPE CHARLES BUO 0551      60                N/A     3/ 9   2/12
64NM E OF VA BCH 0550   62 57  210/ 14/ 14 1015.1F   5/ 9   3/ 9
DUCK PIER NC     0548   72 57  210/ 12/ 17 1014.1S
44100 DUCK FRF   0505      62                N/A     4/11   2/11
44056 DUCK FRF   0600      59                N/A     3/11   2/11
OREGON INLET NC  0548          190/ 16/ 18   N/A
HATTERAS NC      0548   73 71  190/  5/ 10 1015.4F
DIAMOND SHLS NC  0550   77 77  220/ 17/ 23 1016.1S   5/ 6   3/ 8
CAPE LOOKOUT NC  0600   73     180/ 15/ 16 1015.0F
$$




USA.gov is the U.S. government's official web portal to all federal, state and local government web resources and services.